Location: Czu?�w
(50.1404°N, 18.9919°E)
Time: 02:17:28
(UTC+00:00)

Cosmos 1656 - Pass Details

Date: 27 October 2020
Orbit: 796 x 851 km, 71.1° (Epoch: 24 November)

Event Time Altitude Azimuth Distance (km) Brightness Sun altitude
Rises 17:15:07 0° 202° (SSW) 3,338 7.1 -17.6°
Reaches altitude 10° 17:17:31 10° 201° (SSW) 2,418 6.3 -18.0°
Maximum altitude 17:23:03 78° 116° (ESE) 857 3.6 -18.8°
Enters shadow 17:28:41 10° 31° (NNE) 2,452 5.8 -19.7°
